Weather History for TNCM - July, 2013

Change the Weather History Date:

Friday, July 5, 2013

  Actual Average Record
Temperature  
Mean Temperature 83 °F -  
Max Temperature 88 °F 86 °F 91 °F (2000)
Min Temperature 78 °F 77 °F 74 °F (2014)
Cooling Degree Days 18    
Growing Degree Days 33 (Base 50)    
Moisture  
Dew Point 72 °F    
Average Humidity 68    
Maximum Humidity 79    
Minimum Humidity 49    
Precipitation  
Precipitation 0.08 in 0.10 in - ()
Sea Level Pressure  
Sea Level Pressure 30.04 in    
Wind  
Wind Speed 11 mph ()    
Max Wind Speed 20 mph    
Max Gust Speed 33 mph    
Visibility 7.7 miles    
Events      
Averages and records for this station are not official NWS values.
T = Trace of Precipitation, MM = Missing Value Source: Averaged Metar Reports

Daily Weather History Graph

Daily Weather History Graph

Search for Another Location

Airport or City:

Trip Planner

Search our weather history database for the weather conditions in past years. The results will help you decide how hot, cold, wet, or windy it might be!

Date:

Astronomy

Jul. 05, 2013 Rise Set
Actual Time 5:41 AM AST 6:52 PM AST
Civil Twilight 5:17 AM AST 7:16 PM AST
Nautical Twilight 4:49 AM AST 7:44 PM AST
Astronomical Twilight 4:19 AM AST 8:14 PM AST
Moon 3:30 AM AST (7/5) 4:50 PM AST (7/5)
Length of Visible Light 13h 58m
Length of Day
13h 10m
Waning Crescent, 6% of the Moon is Illuminated
Jul 5
Waning Crescent
Jul 8
New
Jul 15
First Quarter
Jul 22
Full
Jul 29
Last Quarter

Hourly Weather History & Observations

Time (AST) Temp. Heat Index Dew Point Humidity Pressure Visibility Wind Dir Wind Speed Gust Speed Precip Events Conditions
12:00 AM 80.6 °F 84.6 °F 71.6 °F 74% 30.06 in 6.2 mi East 6.9 mph - N/A   Scattered Clouds
1:00 AM 80.6 °F 84.6 °F 71.6 °F 74% 30.04 in 6.2 mi East 9.2 mph - N/A   Partly Cloudy
2:00 AM 81 °F - 71 °F 65% 30.04 in 12 mi ENE 10.4 mph - -   Partly Cloudy
2:00 AM 80.6 °F 84.6 °F 71.6 °F 74% 30.04 in 6.2 mi ENE 10.4 mph - N/A   Scattered Clouds
3:00 AM 80.6 °F 84.6 °F 71.6 °F 74% 30.04 in 6.2 mi ENE 9.2 mph - N/A   Partly Cloudy
4:00 AM 80.6 °F 84.6 °F 71.6 °F 74% 30.04 in 6.2 mi East 11.5 mph - N/A   Scattered Clouds
5:00 AM 81 °F - 71 °F 65% 30.04 in 12 mi ENE 12.7 mph - -   Scattered Clouds
5:00 AM 80.6 °F 84.6 °F 71.6 °F 74% 30.04 in 6.2 mi ENE 12.7 mph - N/A   Partly Cloudy
6:00 AM 80.6 °F 84.6 °F 71.6 °F 74% 30.04 in 6.2 mi ENE 10.4 mph - N/A   Partly Cloudy
7:00 AM 82.4 °F 87.2 °F 71.6 °F 70% 30.06 in 6.2 mi ENE 11.5 mph - N/A   Partly Cloudy
8:00 AM 84 °F - 72 °F 58% 30.07 in 12 mi ENE 13.8 mph - -   Partly Cloudy
8:00 AM 84.2 °F 89.6 °F 71.6 °F 66% 30.06 in 6.2 mi ENE 13.8 mph - N/A   Scattered Clouds
9:00 AM 86.0 °F 91.8 °F 71.6 °F 62% 30.06 in 6.2 mi NE 15.0 mph - N/A   Scattered Clouds
10:00 AM 87.8 °F 95.6 °F 73.4 °F 62% 30.06 in - North - - N/A   Scattered Clouds
11:00 AM 86 °F - 72 °F 56% 30.06 in 12 mi East 17.3 mph - -   Partly Cloudy
11:00 AM 86.0 °F 93.4 °F 73.4 °F 66% 30.04 in 6.2 mi East 17.3 mph - N/A   Scattered Clouds
12:00 PM 86.0 °F 91.8 °F 71.6 °F 62% 30.04 in 6.2 mi East 13.8 mph - N/A   Scattered Clouds
1:00 PM 87.8 °F 93.8 °F 71.6 °F 58% 30.04 in 6.2 mi ENE 19.6 mph - N/A   Scattered Clouds
2:00 PM 87 °F - 71 °F 49% 30.04 in 12 mi East 17.3 mph - -   Partly Cloudy
2:00 PM 87.8 °F 93.8 °F 71.6 °F 58% 30.04 in 6.2 mi East 17.3 mph - N/A   Scattered Clouds
3:00 PM 86.0 °F 91.8 °F 71.6 °F 62% 30.01 in 6.2 mi East 15.0 mph - N/A   Scattered Clouds
4:00 PM 87.8 °F 95.6 °F 73.4 °F 62% 30.01 in 6.2 mi ENE 16.1 mph - N/A   Scattered Clouds
5:00 PM 85 °F - 73 °F 61% 30.01 in 12 mi ENE 12.7 mph - -   Mostly Cloudy
5:00 PM 84.2 °F 90.9 °F 73.4 °F 70% 30.01 in 6.2 mi ENE 12.7 mph - N/A   Mostly Cloudy
6:00 PM 84.2 °F 90.9 °F 73.4 °F 70% 30.01 in 6.2 mi ENE 13.8 mph - N/A   Scattered Clouds
7:00 PM 80.6 °F 85.4 °F 73.4 °F 79% 30.01 in 6.2 mi ENE 16.1 mph - N/A   Scattered Clouds
8:00 PM 82 °F - 73 °F 68% 30.02 in 12 mi ENE 15.0 mph - -   Partly Cloudy
8:00 PM 82.4 °F 88.2 °F 73.4 °F 74% 30.01 in 6.2 mi ENE 15.0 mph - N/A   Mostly Cloudy
9:00 PM 78.8 °F - 71.6 °F 78% 30.01 in 6.2 mi East 18.4 mph 33.4 mph N/A   Mostly Cloudy
10:00 PM 78.8 °F - 71.6 °F 78% 30.04 in 6.2 mi ENE 13.8 mph - N/A   Partly Cloudy
11:00 PM 80 °F - 73 °F 75% 30.03 in 12 mi ENE 11.5 mph - -   Partly Cloudy
11:00 PM 80.6 °F 85.4 °F 73.4 °F 79% 30.01 in 6.2 mi ENE 11.5 mph - N/A   Mostly Cloudy